This demonstration page uses our WeatherBlox Daily Observations layout. Learn more.

Left ArrowRight Arrow

36.17497, -115.13722

Hourly Observations for January 9, 2016

Temp ( °F °C ) Dew Point ( °F °C ) Humidity (%) Winds ( mph kmh ) Pressure ( in mb ) Visibility ( mi km ) Precip ( " mm )
12:53 am 00:53 Clear 43 6.1 25 -3.9 49 49 NNW 10 17 30.16 1022 10 16 N/A
1:53 am 01:53 Clear 41 5 24 -4.4 51 51 N N/A 30.18 1022 10 16 N/A
2:53 am 02:53 Clear 40 4.4 25 -3.9 55 55 WNW 6 9 30.19 1022 10 16 N/A
3:53 am 03:53 Clear 39 3.9 25 -3.9 57 57 NW 8 13 30.19 1022 10 16 N/A
4:53 am 04:53 Clear 38 3.3 26 -3.3 62 62 NNW 5 7 30.19 1023 10 16 N/A
5:53 am 05:53 Clear 37 2.8 26 -3.3 65 65 WNW 5 7 30.22 1024 10 16 N/A
6:53 am 06:53 Sunny 37 2.8 27 -2.8 67 67 N 3 6 30.24 1024 10 16 N/A
7:53 am 07:53 Sunny 38 3.3 28 -2.2 68 68 NW 5 7 30.26 1025 10 16 N/A
8:53 am 08:53 Sunny 43 6.1 27 -2.8 53 53 VRB 3 6 30.28 1025 10 16 N/A
9:53 am 09:53 Sunny 46 7.8 28 -2.2 50 50 NE 6 9 30.29 1026 10 16 N/A
10:53 am 10:53 Sunny 47 8.3 28 -2.2 48 48 N N/A 30.27 1025 10 16 N/A
11:53 am 11:53 Sunny 49 9.4 26 -3.3 41 41 E 7 11 30.24 1024 10 16 N/A
12:53 pm 12:53 Sunny 50 10 26 -3.3 39 39 ESE 5 7 30.21 1023 10 16 N/A
1:53 pm 13:53 Sunny 50 10 26 -3.3 39 39 N N/A 30.19 1022 10 16 N/A
2:53 pm 14:53 Sunny 51 10.6 28 -2.2 41 41 N N/A 30.19 1022 10 16 N/A
3:53 pm 15:53 Sunny 50 10 28 -2.2 43 43 E 6 9 30.20 1023 10 16 N/A
4:53 pm 16:53 Clear 47 8.3 30 -1.1 52 52 ESE 6 9 30.21 1023 10 16 N/A
5:53 pm 17:53 Clear 47 8.3 31 -0.6 54 54 E 5 7 30.21 1023 10 16 N/A
6:53 pm 18:53 Clear 45 7.2 31 -0.6 58 58 N N/A 30.22 1023 10 16 N/A
7:53 pm 19:53 Clear 44 6.7 31 -0.6 60 60 WNW 5 7 30.22 1024 10 16 N/A
8:53 pm 20:53 Clear 42 5.6 31 -0.6 65 65 WNW 5 7 30.22 1023 10 16 N/A
9:53 pm 21:53 Clear 41 5 32 undefined 70 70 N N/A 30.22 1023 10 16 N/A
10:53 pm 22:53 Clear 41 5 32 undefined 70 70 NNW 3 6 30.23 1024 10 16 N/A
11:53 pm 23:53 Clear 41 5 32 undefined 70 70 NNW 3 6 30.22 1023 10 16 N/A

Powered by AerisWeather